C/2020 Q1 ( Borisov )

Japanese version
Home page
Updated on February 9, 2021

---------------------------------------------------------------------

* Profile

Discovery Date August 17, 2020
Magnitude 17.8 mag
Discoverer Gennady Borisov (MARGO observatory near Nauchnij, Crimea)

* Pictures

* Orbital Elements

Epoch 2020 Aug. 19.0 TT = JDT 2459080.5
T 2020 Aug. 14.68445 TT                                 Rudenko
q   1.3151214            (2000.0)            P               Q
z  +0.0162023      Peri.    9.90936     +0.71000601     +0.51752933
 +/-0.0002035      Node    52.38504     +0.59776808     -0.80141364
e   0.9786919      Incl.  142.92434     +0.37224292     +0.29983258
From 276 observations 2020 Aug. 17-Oct. 25, mean residual 1".0.

* Finding Charts

* Magnitudes Graph

        m1 = 8.0 + 5 log d + 40 log r(t - 15)

---------------------------------------------------------------------

The orbital elements are published on M.P.E.C. 2020-W26.
The charts are made with StellaNavigator Ver.10 (AstroArts).
The magnitudes graphs are made with Comet for Windows.

---------------------------------------------------------------------

Copyright(C) Seiichi Yoshida (comet@aerith.net). All rights reserved.